Location: Hains Lake
(37.8540°N, 99.8578°W)
Time: 22:11:05
(UTC+00:00)

Vanguard 2 Rocket - Pass Details

Date: 19 April 2021
Orbit: 553 x 3326 km, 32.9° (Epoch: 05 May)

Event Time Altitude Azimuth Distance (km) Brightness Sun altitude
Rises 21:47:51 0° 258° (WSW) 6,866 12.2 40.3°
Reaches altitude 10° 21:52:07 10° 257° (WSW) 6,043 12.3 39.5°
Maximum altitude 22:12:20 75° 176° (S) 3,314 10.4 35.7°
Drops below altitude 10° 22:29:25 10° 95° (E) 5,239 10.4 32.4°
Sets 22:32:49 0° 94° (E) 5,956 10.6 31.7°
